This is the latest recevied weather packets stored in our database for station/object HA9OZD-21. If no packets are shown the sender has not sent any weather packets the latest 10 day(s).
| Time | Temp. | Humidity | Pressure | Rain* | Wind** | Luminosity | Snow |
|---|---|---|---|---|---|---|---|
| 1777356095 | 7.22° C | 56% | 1018.8 hPa | - | - | - | - |
| 1777352494 | 5.56° C | 58% | 1018.5 hPa | - | - | - | - |
| 1777348894 | 5.56° C | 58% | 1018 hPa | - | - | - | - |
| 1777345294 | 5° C | 60% | 1017.8 hPa | - | - | - | - |
| 1777341694 | 5° C | 57% | 1017.9 hPa | - | - | - | - |
| 1777338094 | 5.56° C | 47% | 1018 hPa | - | - | - | - |
| 1777334493 | 6.11° C | 41% | 1018 hPa | - | - | - | - |
| 1777330898 | 6.67° C | 42% | 1018.1 hPa | - | - | - | - |
| 1777327298 | 7.22° C | 47% | 1018.1 hPa | - | - | - | - |
| 1777323698 | 8.33° C | 48% | 1018.2 hPa | - | - | - | - |
| 1777320098 | 8.33° C | 45% | 1018.1 hPa | - | - | - | - |
| 1777316497 | 8.89° C | 44% | 1018.1 hPa | - | - | - | - |
| 1777312897 | 8.89° C | 44% | 1017.8 hPa | - | - | - | - |
| 1777309297 | 9.44° C | 43% | 1017.6 hPa | - | - | - | - |
| 1777305697 | 10° C | 40% | 1017.8 hPa | - | - | - | - |
| 1777302097 | 11.11° C | 40% | 1018.1 hPa | - | - | - | - |
| 1777298497 | 12.78° C | 36% | 1018.7 hPa | - | - | - | - |
| 1777294897 | 12.78° C | 39% | 1019.3 hPa | - | - | - | - |
| 1777291296 | 12.22° C | 38% | 1019.9 hPa | - | - | - | - |
| 1777287696 | 11.67° C | 38% | 1020.5 hPa | - | - | - | - |
| 1777284096 | 10.56° C | 41% | 1020.9 hPa | - | - | - | - |
| 1777280496 | 10° C | 39% | 1021.6 hPa | - | - | - | - |
| 1777276896 | 8.89° C | 40% | 1022 hPa | - | - | - | - |
| 1777273296 | 7.22° C | 41% | 1022.3 hPa | - | - | - | - |
| 1777269695 | 7.22° C | 43% | 1022.3 hPa | - | - | - | - |
* Rain since midnight (hover to see other rain measurements)
** Current wind speed in m/s (hover to see current wind gust speed)